Wind_Speed
57 58 60 62 63 63 63 62 61 60 58 57 56 56 57 57 58 57 56 55 52 50 51 49 46 45 46 47 48 48 47 47 49 50 52 55 57 58 59 59 59 57 56 57 57 57 58 59 59 60 61 64 66 67 68 68 67 66 65 66 68 70 67 65 66 63 59 57 54 54 55 56 56 56 55 56 57 57 57 57 58 59 59 57 54 52
55 57 61 62 62 62 62 61 60 58 56 55 55 55 56 57 58 56 56 56 52 49 51 49 46 45 45 46 47 47 48 49 50 51 52 55 57 58 58 58 58 56 54 57 58 58 59 59 60 60 61 62 64 66 67 68 68 68 67 68 69 70 69 68 68 66 64 63 62 62 61 58 57 57 57 58 59 60 60 61 62 62 60 57 55 52
57 58 62 62 61 62 62 60 58 56 55 55 55 55 56 57 56 55 55 55 51 49 50 49 46 45 45 45 46 46 47 50 50 50 53 55 56 57 57 57 56 53 53 56 57 57 58 59 59 60 60 62 63 64 65 66 68 68 68 68 68 68 68 67 66 66 66 66 65 65 62 60 58 58 58 58 60 61 63 65 65 63 60 57 54 51
59 61 62 61 61 62 61 59 58 57 56 57 56 57 58 58 56 55 55 53 50 49 50 48 45 45 45 44 45 45 47 49 50 50 53 55 55 56 55 54 53 51 52 56 57 57 57 58 59 59 59 60 61 62 63 64 65 67 67 67 67 67 67 67 67 67 67 67 67 67 66 66 66 65 65 64 65 66 67 66 63 60 57 55 53 50
60 62 61 60 62 62 61 60 60 59 59 59 58 59 60 58 56 55 54 50 48 50 50 46 44 44 44 43 43 44 46 48 50 50 51 53 54 53 52 51 50 51 54 57 57 56 57 58 58 58 59 59 59 60 60 61 62 64 65 66 66 66 67 67 68 69 70 70 71 71 71 72 72 73 72 72 71 70 67 63 59 57 55 53 51 48
59 60 59 59 60 60 60 60 60 60 60 59 60 60 59 57 54 53 51 49 47 49 47 43 42 43 42 42 43 44 45 47 49 49 50 52 51 49 49 49 50 52 55 56 55 55 55 56 57 57 58 58 58 58 58 59 60 60 62 63 64 65 65 66 67 68 69 70 71 72 73 74 75 75 75 73 70 67 63 60 56 54 52 50 48 46
57 57 56 56 56 57 57 58 59 58 58 58 59 58 56 55 53 50 49 48 47 46 44 41 41 41 41 41 42 43 44 45 47 47 48 49 48 47 47 47 48 50 52 52 52 53 53 54 55 56 56 56 56 56 56 56 57 57 58 60 60 61 62 63 64 65 66 66 67 68 69 70 71 71 69 67 64 61 58 55 53 51 49 47 46 44
54 54 52 52 53 54 55 56 57 55 54 56 56 55 53 52 50 48 46 46 45 44 42 40 39 40 40 41 41 41 42 43 44 45 46 47 45 44 45 45 47 49 49 49 50 50 51 52 53 54 54 55 55 55 55 54 54 54 55 56 57 57 57 58 59 61 62 62 63 64 64 64 64 63 62 60 58 56 53 51 50 48 47 45 44 42
52 50 49 49 49 51 53 54 53 51 52 54 53 51 50 49 48 45 44 44 43 41 41 40 38 38 40 40 39 40 40 41 43 45 44 44 43 43 43 44 45 46 47 47 48 47 47 48 48 49 51 52 53 53 53 52 52 52 52 53 54 54 55 56 57 58 58 59 59 59 59 59 58 57 56 55 53 51 50 48 47 46 44 43 42 41
48 47 46 46 46 49 51 51 49 50 51 51 49 48 47 46 45 43 42 42 40 39 40 39 36 36 39 40 39 38 39 40 41 43 42 42 41 41 41 42 42 43 44 44 44 43 42 41 42 44 46 48 50 51 50 50 49 49 50 50 51 51 52 53 54 55 55 55 55 55 55 54 53 52 52 51 49 48 47 46 45 44 43 42 41 40
45 43 43 43 45 48 48 47 47 48 48 47 46 45 44 43 42 40 39 39 37 37 39 37 34 35 38 40 37 37 39 40 40 41 41 41 40 39 39 40 40 40 40 40 38 36 33 33 36 39 43 45 46 47 47 46 46 46 47 47 47 48 49 50 50 50 50 50 50 50 50 49 49 49 48 47 46 45 45 44 43 42 41 40 40 39
42 41 41 42 45 45 45 44 45 45 45 44 43 42 41 40 38 37 37 36 35 37 39 36 33 34 38 39 36 36 38 39 40 40 40 41 40 38 38 38 38 38 37 37 34 28 24 29 36 39 41 43 43 44 43 43 43 44 44 44 44 45 45 45 45 46 46 46 47 47 47 46 46 46 46 45 44 43 43 42 42 41 40 40 39 39
38 39 40 41 42 42 42 42 43 44 43 42 40 39 37 36 35 35 34 34 34 37 38 35 32 34 38 38 35 35 37 39 39 40 40 40 39 38 38 38 38 39 39 38 35 32 31 35 42 42 42 42 42 42 42 42 42 42 41 41 40 40 40 42 43 44 44 44 44 44 44 44 44 44 44 43 42 42 41 41 41 40 40 39 39 38
36 37 38 39 40 40 41 41 42 43 42 39 37 35 34 33 33 33 33 33 33 35 35 33 31 33 37 37 34 34 37 38 39 40 40 40 39 38 39 40 41 41 41 40 38 39 42 43 44 43 41 41 42 41 41 41 41 40 39 37 34 32 34 38 42 43 44 43 43 43 43 42 43 43 43 42 41 41 41 41 41 40 39 39 38 37
36 37 38 39 40 40 40 41 42 41 39 37 35 33 33 33 33 33 32 32 32 32 33 31 29 31 36 37 34 35 37 38 39 40 40 40 39 39 39 41 41 41 40 40 39 41 43 44 44 42 40 39 41 40 40 41 40 39 37 33 29 27 27 32 40 42 42 43 43 43 42 41 41 42 41 41 41 42 42 41 40 39 38 37 36 35
37 38 38 39 39 39 39 40 39 38 37 36 34 33 34 34 33 32 31 31 30 31 31 29 28 32 36 36 34 34 36 38 39 40 40 40 39 38 39 40 39 39 39 39 39 40 43 46 45 41 38 38 38 37 36 38 39 38 36 33 33 32 30 31 39 40 39 41 42 42 42 41 41 41 40 40 41 41 41 40 39 38 37 36 34 33
36 37 38 38 39 38 38 38 37 36 36 35 33 33 34 32 31 30 30 30 30 30 30 29 29 32 35 35 34 35 36 38 39 40 40 39 38 38 38 38 38 38 39 39 39 40 42 44 42 39 37 36 36 36 33 33 35 36 36 36 37 37 36 36 38 39 38 38 38 39 39 39 39 39 38 39 39 39 39 38 37 36 35 34 32 31
35 37 37 38 38 37 36 36 35 35 35 33 33 33 32 30 29 30 30 29 30 30 30 29 30 33 34 35 35 35 37 38 39 40 39 38 38 38 37 38 39 39 39 39 40 41 40 40 39 38 37 35 35 34 30 29 32 35 37 38 38 38 40 40 39 37 37 36 34 34 35 36 37 37 36 35 35 35 35 35 34 34 32 32 31 30
35 37 38 38 38 36 35 35 35 34 33 33 33 32 30 29 29 30 29 30 30 30 30 30 31 32 34 35 36 36 37 38 39 39 38 37 37 37 37 38 38 38 39 39 40 41 40 39 40 39 38 36 34 32 30 30 31 34 37 38 37 38 40 42 41 38 37 36 34 32 32 32 32 31 31 30 30 31 32 32 32 30 29 29 30 30
36 37 38 38 37 35 34 34 34 33 32 33 32 31 30 29 30 30 30 30 30 30 30 31 31 32 34 36 36 36 36 38 38 38 37 36 36 37 37 37 37 37 38 38 39 40 41 41 42 42 40 38 36 33 31 31 34 36 37 36 36 37 39 42 43 41 39 38 35 31 29 28 27 25 25 25 26 28 29 30 30 29 29 29 30 31
37 37 38 38 37 35 33 33 32 31 31 31 31 30 30 30 30 30 30 30 30 30 31 32 32 32 34 35 36 36 35 37 38 36 35 35 35 36 36 37 37 38 38 39 38 39 40 42 43 43 41 39 36 34 32 32 34 35 34 33 34 36 38 41 43 43 42 41 37 33 29 26 24 23 22 23 23 25 26 27 28 27 27 28 29 31
37 39 40 39 37 36 34 32 31 30 30 30 30 30 29 29 30 30 30 30 31 31 31 32 34 34 34 35 36 36 36 35 35 34 33 34 35 35 36 36 36 36 38 38 38 38 38 40 42 41 39 35 32 32 30 27 28 30 31 31 32 35 38 40 42 42 42 41 38 34 30 27 26 26 26 25 25 24 25 25 25 24 25 26 28 29
38 40 42 40 38 37 35 32 31 30 29 30 30 29 29 29 30 31 31 31 31 31 31 32 34 35 35 36 37 37 36 35 33 33 34 34 35 36 35 35 35 35 36 36 35 35 34 36 38 36 34 31 29 29 24 18 20 25 29 31 31 33 35 36 38 38 37 37 35 33 31 30 29 27 27 26 26 26 26 27 26 25 26 27 27 27
38 40 42 41 38 37 36 34 32 31 29 29 29 30 30 30 31 31 32 31 31 31 31 32 34 36 36 37 37 37 36 35 34 34 35 35 36 37 35 35 36 37 36 33 34 35 33 33 34 33 30 29 30 28 20 18 23 26 29 32 32 32 32 31 32 32 32 32 31 31 32 33 32 29 27 26 25 26 29 30 30 29 29 29 28 27
40 41 42 42 40 38 37 35 33 32 30 30 30 31 31 32 32 32 31 30 31 31 32 32 34 36 37 37 37 37 36 36 35 36 37 38 38 38 36 37 38 39 39 35 34 36 36 33 33 32 29 30 33 31 23 21 28 29 28 31 33 33 32 30 29 29 31 32 31 31 32 33 34 33 32 31 30 30 32 34 34 33 33 32 30 30
41 42 44 44 42 39 38 37 35 34 33 32 32 32 33 33 33 33 31 30 31 32 32 33 34 36 37 37 38 38 38 38 37 37 39 39 40 40 40 40 39 39 41 39 36 36 36 34 34 33 30 30 34 33 27 23 28 31 31 32 34 35 34 33 32 31 32 33 33 33 32 32 34 35 36 36 37 35 34 35 35 34 34 33 32 31
41 43 44 45 44 43 41 39 38 36 35 33 33 33 33 34 34 33 31 30 31 32 32 33 34 36 37 38 39 40 40 39 39 39 40 40 41 41 42 44 42 40 42 42 40 39 38 36 37 36 33 32 34 35 31 26 27 31 32 30 31 34 37 38 37 35 34 33 34 34 32 31 32 34 36 37 38 36 34 35 36 35 35 35 35 35
41 43 44 45 46 45 43 41 39 37 36 34 34 34 34 34 35 34 32 31 31 32 32 34 35 36 37 38 40 41 41 40 39 40 41 41 42 43 44 46 46 44 44 44 44 42 40 40 41 40 37 36 37 37 35 32 31 32 33 31 30 33 37 39 41 41 38 34 31 31 32 31 29 30 33 34 34 33 34 36 37 37 37 38 39 39
42 42 43 45 46 44 41 40 40 39 37 36 35 35 35 35 35 35 33 32 31 31 33 34 35 36 37 39 41 41 41 41 40 41 42 43 43 44 45 47 48 47 46 47 47 46 44 43 43 43 40 38 39 40 39 39 37 37 38 38 36 35 35 35 38 43 42 37 31 30 33 33 31 30 33 35 36 36 37 39 39 39 40 41 42 43
43 41 42 45 45 43 41 40 40 39 38 37 36 36 36 36 36 36 34 32 32 32 33 34 35 37 38 39 41 42 42 42 42 42 43 44 45 44 45 47 49 48 49 49 49 49 48 46 45 45 44 41 41 42 42 43 42 41 42 44 43 41 39 37 36 38 39 38 36 35 37 37 36 35 36 37 38 39 40 40 40 41 42 42 43 44
44 42 42 44 44 43 41 41 41 41 39 38 37 36 36 36 36 36 35 34 32 33 33 34 35 37 38 39 41 42 43 43 43 44 44 45 46 46 46 48 50 51 51 50 50 51 51 48 47 47 47 45 43 43 44 46 46 44 45 47 48 46 44 43 41 38 36 37 38 39 40 40 39 39 40 39 38 39 40 41 42 43 44 44 44 45
44 42 42 43 43 43 43 44 43 42 40 39 38 38 38 37 37 37 36 35 34 34 34 34 35 37 39 40 41 42 43 44 44 45 45 46 47 47 47 49 52 53 53 51 52 54 53 51 49 49 49 50 48 45 45 47 49 48 47 49 51 52 51 49 47 42 39 39 39 39 38 38 39 39 40 41 40 40 41 43 43 44 44 44 45 45
43 42 42 43 44 45 46 46 45 44 43 41 41 41 40 39 38 37 37 37 36 35 35 36 36 38 39 40 41 42 43 44 45 45 46 47 48 48 49 51 53 56 56 54 53 53 54 54 53 52 52 53 53 51 48 47 48 50 50 50 51 52 53 54 53 50 45 43 44 43 42 42 42 42 42 42 41 41 42 44 45 45 46 46 46 47
44 44 43 44 46 47 48 48 47 47 46 44 43 43 42 41 40 39 38 38 37 36 37 37 37 37 39 40 42 43 43 44 45 46 47 48 49 50 50 52 55 58 59 57 54 52 53 54 55 56 57 57 57 56 54 50 49 49 51 52 52 52 51 52 54 55 52 49 49 49 49 49 48 48 48 47 45 44 44 46 47 46 46 47 47 48
47 46 45 46 48 49 50 50 50 50 48 46 44 44 44 44 43 41 39 38 38 38 38 38 37 37 38 40 41 42 43 44 45 46 47 48 50 51 52 54 57 59 60 59 57 55 54 56 57 58 60 62 61 60 59 57 54 52 52 53 54 54 54 53 53 54 54 53 52 53 54 55 54 54 54 52 51 50 49 48 48 47 47 47 47 48
48 47 48 48 49 51 51 51 52 52 51 49 48 49 48 47 45 43 41 40 40 39 38 38 38 38 38 39 40 42 43 44 45 46 47 49 51 53 54 56 59 61 62 61 60 59 58 58 59 59 61 63 64 64 63 62 61 59 57 56 55 56 56 57 56 55 55 55 55 56 57 58 59 59 59 58 58 57 57 55 55 55 54 53 52 52
49 49 50 50 51 53 53 53 53 53 53 53 54 53 51 49 47 46 44 44 43 41 40 39 39 39 39 39 40 41 43 44 45 47 48 49 51 53 55 57 59 63 64 64 63 63 61 61 61 61 62 64 65 66 66 65 65 64 63 61 60 59 59 59 59 58 58 58 58 58 59 60 62 62 63 64 64 64 64 63 62 63 62 61 61 61
52 53 53 52 53 54 54 55 54 55 56 56 56 54 52 50 50 48 47 46 45 43 42 41 41 41 40 40 41 42 43 45 46 47 48 49 51 53 55 57 60 64 66 67 66 66 65 64 63 63 63 64 65 67 68 68 67 67 66 65 64 64 63 62 62 62 61 62 62 62 62 63 64 65 66 67 68 69 69 69 69 68 68 68 68 68
57 58 58 56 55 55 55 56 56 57 57 57 56 55 53 52 52 50 49 48 47 46 45 44 43 43 43 43 42 43 44 46 46 47 49 50 52 54 55 57 60 63 67 69 69 68 67 67 67 66 65 65 66 67 70 71 71 70 69 68 67 66 66 66 65 65 64 64 64 65 65 66 66 67 68 68 69 70 70 71 72 72 72 71 71 72
61 63 62 59 58 57 56 57 58 58 58 57 56 55 55 54 53 52 52 51 51 50 48 47 47 47 47 46 46 46 46 46 47 48 49 51 53 54 55 57 59 61 65 69 70 69 69 69 69 69 69 69 69 70 70 72 73 73 72 72 71 70 69 69 69 68 67 67 66 66 66 67 68 69 70 70 71 72 72 72 72 72 73 73 74 74
65 67 63 59 57 57 56 57 58 59 59 57 56 56 56 55 55 54 54 55 54 53 51 51 51 50 49 49 49 49 48 48 48 49 49 50 52 54 56 57 58 60 63 66 69 70 70 70 70 71 71 72 73 74 75 74 73 73 74 74 74 73 73 73 72 72 72 71 70 69 68 69 69 70 70 71 71 72 72 72 72 72 72 73 73 74
68 69 64 57 55 56 57 57 58 59 60 59 57 56 56 56 56 57 57 57 57 56 55 54 53 52 51 51 51 51 51 50 50 50 50 51 52 53 55 56 57 59 61 63 65 67 68 68 68 69 71 74 75 77 78 77 76 75 75 75 76 76 75 76 76 76 76 75 74 73 73 72 72 72 72 72 71 71 71 71 71 71 72 73 73 74
70 69 63 58 56 57 57 57 58 59 60 60 59 57 56 56 58 59 59 58 58 58 57 57 56 54 53 53 53 53 52 52 51 51 51 51 52 52 54 55 57 58 60 61 63 65 66 68 68 69 71 75 76 77 78 79 78 78 77 76 77 77 77 77 78 79 79 79 79 78 77 76 76 75 75 74 74 74 73 73 73 73 74 74 75 76
66 65 62 58 57 58 59 58 58 59 61 62 61 59 58 58 59 59 60 60 60 59 59 58 57 56 55 54 54 54 54 53 53 53 52 52 53 53 54 55 56 58 60 61 63 64 66 68 69 71 73 75 75 75 76 77 77 78 78 77 77 76 76 77 78 79 80 80 81 81 80 80 79 79 78 78 78 78 77 77 77 77 78 79 80 80
60 59 58 58 59 61 61 61 60 60 61 62 62 62 61 60 60 60 60 60 61 61 60 59 58 57 56 56 55 55 55 55 54 54 54 54 54 54 55 55 56 58 60 62 63 65 66 67 69 71 72 73 74 75 75 75 76 77 78 78 78 77 77 77 77 78 80 80 81 82 82 82 82 82 81 81 80 80 80 81 81 82 83 84 84 84
54 52 53 56 59 60 61 62 61 61 62 63 63 64 63 63 63 63 62 62 63 63 62 61 61 59 58 58 58 57 57 57 56 56 56 55 55 55 55 55 57 58 60 62 64 66 67 68 69 70 71 72 73 74 75 75 76 76 77 79 79 79 80 80 80 81 81 82 82 83 83 83 83 83 84 83 83 83 83 83 84 84 84 85 85 86
50 49 49 53 55 57 59 61 62 62 63 63 64 65 65 64 65 65 65 64 65 65 64 64 63 62 61 61 60 60 59 59 58 59 58 58 58 57 57 57 58 59 60 62 64 66 67 69 70 71 72 72 72 73 75 75 76 76 77 78 79 80 81 82 82 83 83 83 84 84 85 85 85 85 86 86 85 85 85 84 84 84 84 85 85 86
48 48 48 50 52 54 56 58 61 62 63 64 65 65 66 66 66 67 67 67 68 68 66 66 66 65 64 64 63 63 62 61 61 61 61 61 61 61 61 61 61 61 62 63 64 66 67 69 70 71 72 72 73 73 74 74 75 76 76 77 78 79 80 81 82 82 83 84 84 85 85 86 86 86 85 85 85 84 84 84 84 84 84 85 85 86
48 49 49 49 50 52 54 56 58 60 63 64 65 65 66 66 68 68 69 70 72 71 69 67 66 66 65 65 65 64 64 64 64 64 64 65 65 65 65 65 64 64 64 65 66 67 68 69 71 72 73 73 73 73 73 73 74 74 75 75 76 77 78 78 79 80 81 82 84 85 85 85 85 85 85 85 85 85 85 85 85 85 85 85 86 87
46 48 48 48 49 51 53 55 56 58 60 63 65 65 66 67 69 70 71 73 75 74 71 70 69 68 66 66 66 66 66 67 67 68 68 68 68 69 69 68 68 68 68 68 68 69 69 70 71 72 73 74 74 75 75 75 76 76 76 76 76 77 77 77 77 78 78 80 81 83 84 84 85 84 84 85 85 86 86 87 87 87 87 88 89 89
43 45 46 47 48 50 51 53 55 56 58 61 62 64 67 69 70 72 73 75 76 76 75 74 73 72 71 70 69 68 69 69 69 70 70 70 71 71 71 71 71 71 71 71 70 70 70 71 72 72 73 74 75 76 77 78 79 79 80 80 80 80 80 80 80 80 80 80 81 82 83 84 84 85 85 86 87 87 88 89 89 90 90 91 91 91
Wind_Direction
266 266 266 265 265 264 264 264 265 266 266 266 267 267 267 266 265 263 261 259 258 259 260 258 256 254 253 252 251 249 247 243 242 242 242 243 244 244 244 243 243 242 241 241 239 237 236 235 234 233 233 232 233 235 238 242 245 246 247 250 254 257 258 256 255 253 250 250 250 253 260 266 270 272 273 275 276 278 279 280 282 286 288 288 286 285
268 266 265 264 264 264 264 264 265 266 266 266 266 265 265 265 264 262 261 260 258 258 260 259 257 256 254 252 250 249 247 245 242 241 241 242 242 243 243 243 243 242 241 240 239 237 236 236 235 235 235 236 236 237 239 241 244 246 247 248 251 254 255 255 255 254 251 251 252 255 260 265 268 271 272 274 276 278 279 281 283 286 286 285 284 283
268 265 264 264 264 264 264 264 265 265 265 265 264 263 264 264 264 263 261 260 258 258 259 259 258 257 255 252 250 248 247 246 244 242 242 242 242 242 242 243 243 243 241 241 240 238 237 236 236 235 236 237 238 238 240 242 244 246 247 247 248 249 251 252 254 254 253 252 254 256 258 261 263 266 269 272 275 277 279 281 283 284 284 283 282 283
267 265 264 264 263 263 263 264 264 264 263 263 263 263 264 264 264 264 262 260 259 259 260 259 258 258 255 252 250 248 246 246 245 242 242 243 242 243 243 244 244 243 241 241 240 238 237 237 236 236 236 237 238 239 240 241 243 246 247 248 248 248 249 249 250 251 252 252 253 254 255 257 260 263 265 268 272 275 277 279 280 281 280 280 281 282
266 264 264 263 262 262 262 262 262 262 262 262 263 263 264 264 264 264 264 261 259 260 260 259 258 257 255 253 250 247 245 244 244 242 242 242 242 243 244 244 243 241 239 239 239 239 238 238 238 237 237 237 238 239 240 241 243 244 246 248 248 249 249 250 250 250 251 252 252 253 255 256 259 261 264 267 270 273 275 276 277 277 277 278 279 280
264 263 262 261 261 261 261 261 261 261 261 261 262 262 263 264 264 265 265 262 259 260 261 259 257 256 254 251 248 245 242 242 242 242 241 242 242 242 241 241 240 239 240 241 241 241 240 240 239 239 239 238 238 239 240 241 242 244 245 247 248 249 250 250 251 252 252 253 254 255 256 257 259 261 264 267 269 271 273 274 275 275 275 277 278 280
263 262 261 260 261 261 261 261 260 260 260 261 261 262 263 264 264 264 263 260 258 259 260 257 254 252 250 248 246 243 241 241 242 241 241 242 241 240 239 238 238 239 240 242 243 242 242 241 241 240 240 240 239 239 240 240 242 243 245 247 248 249 250 251 252 253 254 255 256 257 258 259 260 262 265 267 269 270 271 272 273 274 275 276 278 278
262 261 261 260 260 260 260 259 259 259 259 259 260 261 262 262 262 261 260 259 258 258 257 254 250 249 248 246 244 242 240 240 241 240 240 240 239 238 237 236 235 237 239 240 241 241 241 241 241 241 241 241 240 240 240 240 241 243 244 246 248 249 250 251 252 253 254 255 257 258 259 260 262 264 266 267 268 269 270 271 272 273 274 275 276 276
261 261 260 259 258 257 257 256 257 257 256 257 258 259 260 260 260 259 257 257 257 257 256 252 247 246 246 244 241 240 239 238 239 240 239 239 238 236 235 234 234 236 237 239 240 240 241 242 243 243 243 243 242 241 241 240 241 242 244 245 247 248 249 250 251 252 254 255 257 258 260 262 263 265 266 267 268 269 270 271 271 272 272 273 274 274
260 259 258 256 255 254 253 254 254 254 255 256 258 258 258 258 258 257 256 256 256 255 254 250 245 244 245 243 239 238 237 236 236 238 239 238 237 235 234 234 235 235 237 238 240 241 243 245 246 247 247 246 245 243 242 241 241 242 244 245 247 248 250 251 252 254 255 257 258 260 261 263 264 265 266 267 268 269 270 270 271 271 272 272 273 273
256 256 255 254 252 252 253 253 253 254 255 256 256 256 256 256 256 256 256 255 255 254 252 248 243 242 242 241 238 235 236 235 234 235 236 236 235 233 233 234 234 235 237 240 241 243 248 253 253 252 251 249 247 246 244 243 242 243 244 246 248 250 251 253 255 257 258 259 260 261 263 264 265 266 267 268 269 270 270 271 271 271 272 272 272 272
255 255 254 253 253 253 254 254 254 254 254 254 254 255 255 256 256 256 255 254 252 251 249 245 241 239 240 239 235 233 235 234 233 233 234 234 232 230 230 231 232 233 234 237 238 237 245 256 255 252 251 249 247 245 244 243 242 243 244 246 249 251 254 256 258 259 260 260 261 262 264 265 266 267 268 269 270 270 270 270 271 271 271 271 271 270
256 256 254 254 254 254 253 253 253 252 252 253 254 255 256 256 256 256 254 252 250 248 247 244 239 237 238 238 234 233 234 234 233 232 233 233 232 229 227 227 227 228 228 229 227 220 219 233 242 244 245 245 243 242 241 241 242 242 244 246 249 254 259 261 261 261 262 262 263 264 265 266 267 268 269 270 270 270 270 270 270 270 270 270 269 269
253 252 252 252 252 251 251 250 250 250 251 252 253 254 255 254 253 251 249 247 246 245 245 242 238 236 238 237 233 232 233 234 233 232 232 232 231 228 226 225 224 224 223 223 222 218 214 219 229 236 239 241 240 239 238 239 240 241 243 246 251 260 268 269 267 266 265 264 264 265 265 266 267 268 269 269 270 270 270 270 270 270 269 268 268 267
249 248 247 247 248 248 248 248 248 249 250 250 249 249 249 248 247 246 245 244 243 243 243 240 235 235 238 236 232 231 233 233 233 232 231 231 230 228 226 225 224 223 223 221 220 220 218 217 224 231 236 239 239 237 237 237 238 239 241 241 243 247 255 265 269 268 266 265 265 265 265 265 266 267 268 269 269 269 269 269 269 269 268 267 266 265
248 246 244 244 246 246 247 248 248 249 249 247 246 245 245 244 244 244 242 242 241 240 240 236 232 234 237 236 231 230 232 233 232 232 231 231 229 228 227 226 225 224 223 222 220 220 220 219 223 228 232 236 237 236 237 237 236 238 238 235 231 227 228 244 259 263 264 264 263 263 264 265 265 266 267 268 268 268 268 268 268 267 267 266 265 265
248 246 243 242 244 245 246 247 247 246 247 246 244 243 243 242 241 241 240 239 237 236 236 231 228 232 235 235 230 227 229 231 231 231 231 230 229 228 227 225 223 222 221 220 220 220 221 221 225 229 231 234 237 239 241 240 238 238 237 233 230 227 224 232 247 257 261 262 262 263 263 264 265 266 267 268 268 269 269 268 267 265 264 263 263 262
245 243 240 240 241 242 244 245 244 243 244 243 241 240 240 239 238 238 237 236 235 233 232 228 226 230 232 232 229 225 226 228 229 229 229 228 227 226 225 223 221 219 218 217 217 218 220 222 225 228 231 234 237 240 244 247 245 242 240 236 233 230 227 230 239 250 256 260 264 267 267 266 266 267 268 268 269 269 269 267 264 262 260 260 259 259
241 240 236 236 238 240 242 243 243 241 240 240 238 237 236 234 234 234 233 233 233 232 230 226 225 227 229 229 228 225 224 225 226 228 227 225 225 224 223 222 220 219 218 217 217 216 217 219 221 223 227 231 235 238 243 250 252 247 243 239 236 234 232 233 238 244 250 256 263 268 269 268 268 268 268 269 269 269 267 264 262 260 258 257 258 260
238 237 235 234 236 239 240 243 243 241 239 239 237 236 234 232 230 230 230 230 230 230 229 226 224 225 227 227 227 226 224 224 225 225 225 223 223 222 221 220 219 218 217 217 217 217 217 218 218 219 222 227 232 237 243 251 253 250 245 241 238 237 236 236 239 242 246 252 260 265 267 268 267 266 267 268 268 268 266 264 262 261 260 260 260 261
236 235 234 233 235 237 240 243 244 243 240 238 236 234 232 231 229 229 229 229 229 228 228 225 222 223 225 225 225 225 224 224 223 223 222 221 220 220 219 218 216 214 213 213 215 217 218 220 220 220 222 226 232 238 244 249 251 250 247 244 241 240 238 237 239 240 243 249 256 262 264 264 260 260 264 267 267 268 269 267 265 263 262 262 262 262
234 235 233 232 234 236 238 242 244 242 238 236 235 233 231 230 230 229 229 229 228 227 227 225 221 220 221 222 223 224 224 224 222 220 218 217 218 218 218 217 215 214 213 212 212 214 217 221 223 224 227 230 235 240 242 246 253 255 252 247 243 241 238 237 239 241 243 245 249 253 256 258 259 262 266 268 270 272 274 272 269 267 265 263 262 263
232 235 236 234 234 235 236 239 242 242 237 234 234 232 229 229 229 229 229 228 228 227 227 225 222 219 219 219 220 222 223 223 221 217 214 212 214 215 215 215 213 212 213 212 210 211 216 224 228 229 230 232 232 232 234 244 252 254 253 249 245 242 240 237 238 242 244 244 243 245 248 252 258 264 268 270 274 275 274 271 269 267 264 262 262 263
229 234 237 237 234 234 236 237 242 243 236 232 232 230 227 227 228 228 229 229 228 228 227 225 223 221 218 218 219 220 220 220 218 215 211 209 209 211 210 209 210 209 209 209 207 206 209 219 228 229 227 225 221 215 216 235 240 242 249 252 248 246 243 238 238 241 243 242 241 242 246 249 254 259 263 267 269 269 268 267 265 263 261 261 261 262
228 231 236 237 234 234 235 237 241 243 236 230 229 228 226 225 226 227 227 227 228 227 225 223 223 222 219 218 218 218 217 218 216 213 210 208 207 207 204 203 208 209 206 205 207 206 203 209 219 222 220 219 213 203 200 224 236 237 242 248 249 247 244 241 239 239 240 241 242 244 247 249 251 255 259 261 263 265 265 264 262 261 260 260 260 260
229 230 234 237 236 234 234 236 239 240 235 229 227 226 225 224 225 225 224 225 227 227 225 222 221 221 220 217 217 217 216 215 214 212 210 209 207 204 200 198 204 211 210 208 208 205 202 206 211 214 217 217 209 199 197 217 237 238 237 243 248 248 247 247 243 239 239 240 241 244 247 250 252 255 258 260 262 265 265 263 262 262 263 262 262 260
230 230 233 236 237 235 234 235 238 236 232 229 227 226 225 224 225 224 222 223 226 226 225 223 221 220 219 218 217 217 216 214 213 211 210 210 208 205 201 199 202 208 211 208 204 202 203 206 207 208 214 217 209 202 202 213 231 236 234 238 244 246 247 248 247 246 242 239 240 243 246 250 253 259 261 261 261 262 261 261 263 265 266 266 265 262
232 230 231 234 236 236 234 234 235 233 229 228 226 226 225 224 224 223 221 223 225 225 225 223 221 220 219 218 217 217 216 215 213 211 211 211 210 207 204 202 202 205 206 203 201 202 205 207 207 207 212 215 212 209 209 213 224 231 229 227 231 237 241 243 245 247 245 242 241 242 244 245 247 252 255 255 254 255 255 258 262 265 265 264 263 263
234 230 230 232 234 235 233 230 229 228 226 226 226 225 225 224 224 223 222 222 224 224 224 224 222 220 218 218 217 217 217 215 213 211 211 211 211 210 207 204 204 204 202 201 202 205 207 208 209 210 211 213 214 215 214 214 218 225 227 226 227 231 235 236 239 243 244 243 240 235 237 241 241 242 246 249 249 250 251 254 259 262 263 263 265 267
234 232 230 230 231 231 229 225 222 223 224 225 226 225 225 224 224 223 222 222 223 224 224 223 222 221 219 218 218 218 217 216 214 212 211 212 212 212 209 206 204 202 200 201 205 208 208 209 212 214 213 213 215 218 219 217 218 223 226 227 228 232 235 235 236 240 242 242 239 230 230 235 238 239 243 247 247 248 249 252 255 259 262 265 268 271
232 231 230 230 230 227 224 220 218 220 222 223 225 226 225 224 224 224 223 222 223 224 224 222 221 221 220 219 218 218 218 217 215 213 212 212 212 212 210 208 204 201 200 203 208 210 210 210 214 217 216 215 216 219 222 222 222 225 228 229 230 231 234 235 236 238 239 240 238 232 229 235 241 243 245 246 248 250 252 253 256 258 262 265 267 270
234 231 229 230 229 226 222 219 217 219 220 221 223 224 224 223 222 223 224 223 223 224 225 223 221 221 221 220 219 219 218 217 217 215 214 213 213 212 210 208 205 202 202 205 210 213 213 213 215 218 218 217 216 219 223 226 226 227 230 231 232 233 234 235 236 237 237 235 233 230 230 236 241 244 245 247 251 255 257 258 258 259 262 265 267 269
236 234 230 228 227 225 222 220 217 218 219 219 221 223 223 222 221 222 224 224 224 224 225 224 222 221 221 221 220 220 219 218 217 217 215 214 214 213 211 208 206 204 204 207 211 215 216 217 219 220 220 219 219 220 223 226 228 230 230 229 230 234 236 237 237 238 237 234 231 229 231 235 238 241 244 248 252 256 257 258 258 260 263 266 268 270
232 232 230 228 227 225 224 222 219 218 218 218 221 223 223 223 221 220 222 225 225 224 225 225 224 223 222 222 222 221 221 220 218 218 217 216 215 214 212 209 207 206 206 209 212 215 218 220 222 223 223 222 222 222 223 225 228 231 233 231 229 231 234 238 240 240 239 237 233 232 234 236 238 241 245 249 252 252 252 253 255 258 261 264 267 269
227 228 228 227 227 227 226 224 222 220 219 219 220 223 223 223 222 220 221 224 225 225 226 226 225 225 225 224 223 223 223 222 220 219 218 217 216 215 214 211 209 208 208 210 212 215 217 219 222 224 225 224 224 224 226 227 228 231 234 235 234 233 234 236 239 241 242 241 239 237 237 240 241 243 246 249 251 252 251 252 253 255 257 260 262 264
227 227 227 226 226 227 227 225 224 224 222 220 220 221 221 222 222 220 219 222 224 224 226 226 225 225 225 225 225 224 224 224 223 222 220 219 218 217 216 214 212 210 210 212 214 216 218 220 222 224 226 227 226 227 228 230 231 232 234 235 238 238 238 236 237 239 241 243 243 241 241 242 245 246 248 251 253 255 256 256 257 258 259 260 261 262
230 229 228 227 226 227 228 227 226 226 225 223 223 223 222 222 222 221 220 221 222 223 225 226 226 225 225 226 226 226 226 225 224 224 223 222 221 219 218 216 214 213 213 213 215 217 219 221 223 225 227 228 229 230 231 233 235 236 237 237 238 240 241 241 241 241 241 242 244 244 244 244 246 248 250 252 254 256 258 259 261 263 264 265 265 265
231 230 229 227 226 227 229 229 227 227 227 227 227 227 226 224 224 223 222 222 222 223 224 225 226 226 225 226 227 227 227 227 225 224 224 224 224 223 221 219 217 216 215 216 218 220 222 224 226 228 229 230 231 232 233 235 237 239 240 240 240 241 242 244 245 245 245 245 245 246 246 247 247 249 250 252 254 256 258 260 262 264 266 267 268 268
229 229 228 226 225 225 227 229 230 229 229 229 230 230 229 228 227 226 225 225 224 224 224 225 226 227 226 225 226 226 227 228 227 225 225 225 225 225 224 222 221 219 219 220 221 223 225 227 228 230 232 233 235 236 236 237 239 240 241 242 243 243 244 245 246 247 248 248 248 248 248 249 250 251 252 254 256 258 260 261 263 265 266 268 269 270
228 229 228 226 225 224 224 227 230 231 232 231 231 231 231 231 230 229 228 227 227 226 225 226 226 227 227 227 226 226 226 227 228 228 227 227 227 227 227 226 225 223 222 223 225 227 229 230 231 232 234 236 237 239 239 240 241 242 243 244 245 246 246 247 248 249 249 250 251 250 250 251 251 252 253 254 256 258 260 262 264 265 267 268 269 270
229 231 230 227 226 225 224 225 228 231 234 234 233 232 232 232 232 231 230 230 230 228 227 228 228 228 228 229 229 228 227 227 228 229 229 229 229 229 229 228 228 227 227 226 227 229 231 234 235 236 237 238 240 241 242 242 243 244 245 246 247 247 248 249 250 251 252 252 253 253 253 253 253 254 254 255 256 257 259 261 263 265 266 267 269 270
229 233 233 230 228 228 227 226 226 229 233 236 236 235 234 233 232 232 232 232 233 232 231 231 231 231 230 230 231 231 231 230 230 230 229 230 231 232 232 232 231 231 231 231 231 231 233 236 238 240 240 240 241 243 244 244 245 246 247 248 248 249 250 251 252 253 253 254 254 255 255 256 256 256 257 258 259 259 260 261 262 264 265 266 267 268
229 233 233 231 229 229 230 229 228 229 232 234 236 236 236 235 234 234 234 234 235 235 235 235 235 234 233 232 232 233 234 234 234 233 232 232 232 233 235 235 235 234 234 234 234 234 235 236 238 240 242 242 242 244 246 247 247 248 249 250 250 251 252 253 254 255 255 255 255 256 256 257 258 258 259 260 260 261 261 262 262 263 265 266 267 267
231 234 234 232 230 230 230 230 229 230 231 233 235 236 236 236 236 236 235 235 236 236 237 238 238 238 237 236 235 235 236 236 236 236 236 236 235 235 235 236 237 237 237 236 236 236 236 237 239 240 242 243 244 245 247 249 249 250 250 251 251 252 253 254 255 256 256 257 257 257 257 258 259 259 260 261 261 261 262 262 263 263 264 265 266 267
233 235 235 234 232 230 230 230 229 229 231 232 234 236 236 237 237 237 237 237 237 237 237 238 239 240 240 239 238 237 237 238 239 239 239 238 238 238 239 239 239 239 239 239 239 239 238 239 240 241 243 244 245 246 247 249 250 251 252 252 253 253 254 255 256 256 257 257 258 259 259 259 260 261 262 262 262 263 263 264 265 266 267 268 268 269
237 237 236 235 235 233 232 232 231 230 231 232 233 235 237 237 238 239 238 237 237 238 238 238 238 238 239 241 241 240 239 239 240 241 241 241 240 239 240 241 241 242 241 241 241 241 241 241 242 243 244 245 246 247 248 248 250 251 252 253 253 254 255 256 256 257 258 258 259 259 260 261 261 262 263 264 264 265 266 267 267 268 269 270 271 271
240 240 237 237 237 237 236 235 234 233 233 233 234 235 237 238 239 240 240 240 239 238 238 238 238 238 238 239 241 242 242 242 242 242 242 242 241 240 239 240 242 242 243 242 242 242 242 243 244 245 246 246 247 248 248 249 250 250 252 253 253 254 255 256 256 257 258 259 260 260 261 262 262 263 263 264 265 266 266 267 268 269 270 271 271 272
239 239 238 237 238 238 238 237 237 236 236 236 236 236 238 239 241 242 243 243 243 241 239 238 238 238 238 239 239 240 242 243 244 244 244 244 244 243 241 241 240 241 242 242 243 243 243 243 244 245 246 248 248 249 250 250 250 251 251 252 253 254 255 255 256 257 258 259 260 260 261 262 263 264 264 265 266 266 267 267 268 269 269 270 271 272
237 238 237 236 236 237 237 238 238 237 238 238 238 238 238 240 241 243 244 245 246 246 245 244 242 241 240 240 241 241 241 242 243 244 245 245 245 245 245 244 243 242 242 242 242 243 244 244 245 246 247 248 249 250 251 251 252 252 253 253 254 255 255 256 257 257 258 259 259 260 261 261 262 263 264 265 266 266 267 268 269 269 270 271 271 272
236 237 237 236 235 234 234 235 236 236 237 238 238 238 238 239 240 242 244 245 247 249 249 249 248 247 246 244 243 242 242 242 242 243 243 244 245 246 247 247 247 246 245 244 243 243 244 244 245 246 247 248 249 251 252 252 253 254 255 255 256 256 256 257 257 258 259 259 260 260 261 261 262 262 263 264 264 265 266 267 267 268 269 270 271 272
236 237 237 237 237 236 234 234 234 235 236 236 237 238 238 238 239 240 242 244 247 248 249 249 249 250 249 249 247 246 245 244 243 243 243 244 245 246 247 248 249 249 249 249 248 247 247 247 247 247 248 248 249 250 251 252 254 255 256 257 257 258 258 258 258 259 259 260 261 261 261 262 262 263 263 264 265 265 266 266 267 267 268 269 270 270
Height
10582 10582 10581 10579 10580 10582 10584 10585 10588 10591 10595 10597 10598 10599 10598 10597 10596 10598 10599 10600 10605 10608 10608 10611 10617 10620 10620 10621 10622 10624 10628 10632 10633 10634 10635 10634 10634 10636 10638 10641 10645 10651 10657 10660 10664 10669 10673 10677 10680 10684 10687 10690 10692 10694 10696 10698 10698 10699 10700 10699 10701 10702 10707 10712 10714 10714 10713 10714 10716 10713 10711 10712 10712 10712 10712 10713 10714 10716 10717 10718 10718 10719 10720 10721 10722 10722
10575 10575 10571 10570 10572 10574 10576 10578 10582 10585 10588 10590 10591 10591 10590 10589 10588 10591 10593 10594 10600 10604 10602 10605 10611 10613 10614 10615 10616 10618 10621 10623 10625 10627 10628 10627 10627 10629 10631 10634 10638 10645 10651 10651 10655 10661 10665 10669 10672 10676 10680 10682 10685 10688 10690 10692 10692 10694 10695 10695 10696 10698 10700 10703 10707 10710 10710 10710 10710 10708 10708 10708 10707 10708 10707 10708 10709 10710 10711 10712 10713 10714 10715 10716 10717 10717
10567 10565 10561 10563 10566 10567 10568 10572 10575 10578 10581 10581 10582 10582 10581 10581 10582 10584 10586 10588 10594 10597 10596 10599 10604 10606 10607 10609 10610 10613 10614 10614 10617 10620 10620 10619 10621 10622 10625 10629 10633 10640 10645 10644 10647 10654 10657 10661 10664 10668 10672 10674 10677 10680 10683 10685 10686 10688 10689 10690 10691 10693 10695 10697 10700 10704 10705 10704 10704 10703 10704 10705 10704 10704 10704 10704 10704 10705 10706 10707 10709 10710 10710 10711 10711 10712
10557 10555 10554 10557 10558 10559 10562 10565 10568 10570 10572 10572 10573 10574 10573 10574 10577 10578 10579 10584 10590 10590 10590 10593 10598 10599 10600 10602 10604 10606 10607 10607 10610 10612 10612 10613 10615 10617 10620 10625 10629 10635 10638 10637 10640 10646 10650 10653 10656 10660 10663 10665 10669 10672 10675 10678 10680 10681 10682 10684 10685 10687 10690 10692 10694 10697 10698 10699 10699 10699 10700 10700 10700 10700 10700 10700 10700 10700 10701 10703 10704 10705 10705 10705 10705 10706
10547 10546 10548 10550 10550 10552 10555 10557 10560 10562 10564 10565 10566 10566 10566 10567 10571 10572 10573 10580 10584 10582 10583 10588 10592 10592 10593 10595 10597 10600 10601 10600 10601 10604 10606 10606 10608 10612 10616 10619 10623 10627 10629 10629 10634 10639 10643 10646 10649 10652 10655 10658 10662 10665 10668 10671 10673 10675 10676 10678 10680 10682 10684 10687 10689 10691 10692 10693 10694 10694 10695 10695 10695 10695 10695 10695 10696 10696 10697 10698 10699 10699 10699 10699 10700 10701
10538 10538 10540 10542 10543 10545 10547 10550 10552 10554 10556 10558 10558 10558 10559 10561 10565 10567 10569 10573 10576 10575 10577 10583 10585 10584 10586 10588 10590 10592 10594 10593 10594 10598 10599 10599 10603 10607 10610 10612 10616 10620 10622 10625 10630 10634 10637 10640 10643 10646 10649 10652 10656 10658 10661 10664 10667 10669 10671 10672 10674 10677 10679 10681 10683 10685 10686 10688 10688 10689 10689 10689 10689 10689 10689 10690 10691 10691 10692 10692 10693 10693 10693 10694 10694 10695
10529 10530 10533 10535 10536 10538 10541 10542 10543 10546 10549 10550 10549 10551 10554 10556 10558 10562 10563 10566 10568 10569 10572 10576 10577 10577 10578 10580 10582 10585 10587 10587 10589 10591 10592 10594 10598 10601 10603 10607 10610 10614 10618 10621 10624 10628 10631 10634 10637 10640 10643 10647 10650 10652 10655 10658 10661 10663 10665 10666 10668 10671 10674 10676 10677 10678 10680 10681 10682 10683 10683 10683 10682 10683 10684 10684 10684 10685 10686 10687 10687 10687 10687 10688 10689 10690
10520 10522 10527 10529 10530 10532 10533 10533 10535 10540 10542 10541 10542 10546 10548 10549 10552 10556 10558 10559 10560 10563 10565 10568 10569 10570 10570 10573 10576 10579 10581 10582 10583 10584 10586 10589 10592 10595 10598 10601 10604 10608 10612 10615 10618 10621 10625 10628 10631 10635 10638 10641 10644 10646 10649 10652 10655 10657 10659 10661 10662 10665 10667 10669 10670 10671 10673 10674 10675 10676 10676 10676 10676 10677 10677 10677 10678 10679 10681 10680 10681 10681 10682 10682 10683 10684
10512 10516 10520 10521 10523 10524 10523 10525 10529 10533 10533 10533 10536 10540 10542 10544 10546 10549 10552 10552 10555 10558 10558 10560 10563 10564 10564 10566 10570 10572 10574 10577 10577 10578 10581 10584 10588 10591 10594 10596 10599 10604 10607 10609 10612 10616 10620 10624 10628 10631 10634 10637 10639 10641 10643 10647 10650 10652 10654 10655 10657 10659 10661 10662 10663 10665 10667 10668 10669 10669 10669 10670 10671 10671 10671 10671 10672 10673 10674 10674 10675 10675 10676 10677 10678 10679
10507 10510 10512 10514 10516 10515 10515 10519 10523 10524 10525 10528 10531 10534 10536 10538 10540 10543 10546 10547 10550 10552 10551 10553 10558 10559 10558 10560 10564 10566 10568 10570 10572 10574 10577 10580 10584 10587 10590 10593 10596 10600 10603 10606 10610 10614 10619 10623 10626 10629 10630 10633 10635 10636 10639 10643 10645 10647 10649 10650 10651 10653 10655 10656 10658 10659 10661 10663 10663 10663 10663 10664 10665 10665 10665 10665 10667 10668 10668 10668 10669 10670 10671 10672 10672 10673
10501 10504 10506 10508 10507 10507 10510 10514 10517 10518 10521 10523 10526 10528 10530 10533 10535 10538 10541 10542 10545 10546 10544 10547 10552 10554 10553 10554 10558 10561 10562 10564 10567 10569 10572 10575 10579 10584 10587 10590 10594 10597 10600 10604 10608 10614 10619 10622 10623 10625 10626 10628 10630 10632 10635 10638 10640 10642 10643 10645 10647 10648 10650 10652 10653 10654 10656 10657 10657 10657 10657 10658 10659 10659 10659 10660 10662 10663 10663 10663 10664 10665 10666 10666 10667 10667
10497 10499 10501 10501 10501 10503 10506 10509 10511 10513 10515 10517 10520 10523 10526 10528 10531 10534 10536 10538 10540 10539 10538 10542 10547 10548 10547 10548 10553 10556 10557 10559 10562 10564 10567 10570 10574 10579 10583 10586 10590 10593 10597 10600 10605 10611 10616 10617 10616 10617 10619 10622 10625 10627 10629 10632 10634 10636 10638 10640 10642 10644 10646 10647 10648 10649 10650 10651 10650 10651 10652 10653 10654 10654 10654 10656 10657 10658 10658 10658 10659 10660 10660 10661 10661 10661
10494 10495 10495 10495 10496 10499 10501 10503 10505 10507 10509 10512 10516 10519 10521 10524 10527 10529 10530 10532 10533 10532 10533 10538 10542 10543 10543 10544 10549 10551 10552 10554 10557 10560 10562 10565 10570 10575 10578 10581 10584 10587 10589 10593 10597 10601 10603 10602 10603 10607 10611 10614 10618 10620 10623 10625 10627 10630 10633 10636 10638 10640 10642 10643 10643 10643 10643 10644 10645 10645 10647 10648 10649 10649 10650 10651 10652 10653 10653 10653 10653 10654 10655 10655 10656 10656
10489 10488 10489 10490 10491 10493 10495 10497 10499 10500 10504 10508 10512 10515 10517 10520 10521 10522 10524 10526 10527 10527 10529 10534 10538 10539 10539 10541 10545 10547 10547 10550 10552 10555 10558 10561 10565 10570 10573 10576 10577 10579 10582 10586 10591 10592 10591 10591 10595 10600 10604 10608 10612 10614 10617 10619 10621 10625 10628 10632 10637 10639 10640 10638 10637 10637 10638 10638 10639 10640 10641 10643 10644 10644 10645 10646 10647 10647 10647 10647 10648 10649 10649 10650 10650 10651
10483 10483 10484 10484 10485 10488 10490 10491 10493 10497 10501 10504 10508 10510 10512 10513 10515 10516 10519 10520 10522 10524 10526 10530 10534 10535 10535 10536 10540 10542 10543 10545 10548 10551 10553 10556 10560 10564 10568 10570 10572 10576 10579 10583 10586 10589 10590 10591 10593 10596 10600 10604 10608 10610 10611 10613 10616 10620 10624 10629 10633 10635 10635 10633 10629 10629 10631 10632 10633 10634 10636 10637 10638 10638 10640 10641 10641 10641 10642 10642 10643 10643 10644 10645 10645 10646
10477 10478 10478 10479 10480 10483 10485 10487 10490 10494 10496 10499 10503 10505 10505 10507 10510 10512 10514 10516 10517 10520 10522 10525 10529 10529 10529 10531 10536 10538 10539 10541 10543 10546 10548 10552 10556 10559 10562 10566 10570 10574 10577 10581 10583 10586 10588 10589 10590 10594 10596 10600 10604 10606 10607 10609 10613 10616 10620 10624 10625 10625 10627 10625 10621 10622 10624 10625 10627 10628 10630 10631 10632 10633 10634 10635 10635 10636 10637 10638 10638 10639 10639 10639 10640 10641
10472 10473 10474 10475 10476 10478 10481 10483 10486 10489 10491 10494 10498 10499 10500 10503 10506 10508 10509 10511 10513 10515 10517 10521 10523 10523 10524 10527 10531 10534 10535 10536 10539 10541 10544 10548 10551 10554 10558 10562 10567 10569 10572 10576 10580 10582 10585 10586 10589 10592 10594 10597 10601 10602 10604 10607 10611 10613 10615 10617 10618 10619 10619 10617 10616 10618 10619 10620 10621 10623 10624 10625 10626 10627 10629 10630 10630 10631 10632 10633 10633 10634 10634 10634 10635 10636
10467 10468 10469 10470 10471 10474 10476 10479 10482 10484 10487 10490 10492 10493 10496 10500 10502 10503 10505 10507 10509 10511 10513 10516 10518 10518 10520 10522 10525 10529 10531 10532 10535 10537 10540 10544 10547 10550 10554 10557 10561 10564 10567 10571 10575 10578 10581 10584 10587 10590 10592 10596 10598 10600 10603 10606 10608 10610 10610 10611 10613 10614 10613 10612 10613 10615 10616 10617 10619 10619 10620 10621 10621 10622 10624 10625 10626 10626 10627 10627 10628 10629 10630 10630 10631 10632
10461 10463 10465 10466 10467 10470 10473 10474 10477 10480 10482 10484 10486 10489 10493 10495 10496 10498 10500 10502 10504 10507 10509 10511 10513 10514 10515 10517 10520 10524 10526 10528 10531 10533 10536 10540 10542 10545 10549 10553 10557 10561 10564 10568 10571 10574 10578 10581 10584 10587 10589 10592 10595 10597 10600 10602 10603 10604 10604 10606 10609 10610 10610 10610 10611 10612 10614 10615 10616 10616 10616 10617 10617 10618 10619 10620 10621 10621 10622 10622 10623 10624 10625 10626 10627 10627
10456 10458 10460 10462 10463 10466 10469 10470 10473 10476 10478 10480 10482 10485 10488 10490 10492 10494 10496 10498 10500 10503 10505 10506 10508 10509 10510 10512 10515 10519 10522 10525 10527 10530 10533 10536 10539 10542 10546 10550 10554 10558 10561 10564 10567 10571 10575 10578 10579 10582 10585 10588 10591 10594 10596 10597 10596 10596 10598 10603 10606 10607 10608 10608 10608 10610 10612 10612 10612 10613 10613 10613 10613 10614 10615 10616 10617 10617 10618 10618 10619 10620 10621 10622 10623 10623
10451 10453 10456 10458 10460 10462 10465 10467 10469 10472 10474 10476 10478 10481 10483 10486 10488 10490 10492 10494 10496 10498 10500 10502 10503 10504 10506 10508 10511 10515 10518 10521 10524 10527 10530 10533 10536 10539 10543 10546 10549 10552 10555 10559 10563 10568 10572 10574 10576 10579 10582 10586 10588 10591 10592 10592 10590 10591 10596 10600 10603 10603 10604 10605 10605 10606 10608 10609 10609 10610 10610 10610 10610 10611 10612 10612 10613 10613 10613 10614 10615 10616 10618 10618 10618 10619
10447 10449 10451 10453 10456 10458 10461 10463 10465 10467 10470 10472 10474 10477 10479 10482 10484 10486 10488 10490 10492 10494 10496 10497 10498 10499 10502 10505 10508 10511 10514 10517 10521 10524 10527 10530 10534 10537 10540 10542 10545 10549 10551 10554 10558 10563 10568 10570 10573 10576 10579 10583 10586 10588 10589 10588 10587 10589 10593 10595 10597 10598 10599 10600 10601 10602 10604 10605 10606 10606 10607 10607 10607 10608 10609 10609 10609 10609 10609 10609 10611 10612 10613 10614 10615 10615
10443 10444 10445 10449 10453 10454 10456 10459 10460 10463 10466 10468 10470 10473 10475 10478 10480 10482 10484 10485 10488 10490 10492 10493 10494 10496 10498 10501 10504 10507 10510 10514 10517 10521 10524 10527 10531 10534 10537 10540 10543 10546 10549 10552 10556 10560 10565 10568 10569 10572 10576 10580 10582 10584 10586 10586 10585 10586 10588 10589 10592 10594 10594 10596 10597 10598 10599 10601 10602 10603 10603 10604 10605 10605 10605 10606 10606 10605 10605 10605 10606 10608 10609 10610 10611 10612
10438 10440 10441 10444 10448 10450 10452 10454 10456 10458 10462 10464 10466 10469 10471 10473 10475 10477 10480 10482 10484 10486 10488 10489 10491 10492 10494 10497 10500 10504 10507 10510 10513 10517 10520 10523 10527 10530 10534 10538 10541 10542 10545 10549 10552 10554 10558 10561 10564 10568 10571 10574 10578 10580 10583 10583 10581 10582 10584 10585 10588 10590 10590 10591 10592 10593 10595 10596 10597 10599 10600 10601 10602 10602 10602 10602 10603 10602 10601 10601 10602 10604 10605 10606 10608 10610
10433 10435 10436 10438 10442 10446 10448 10450 10453 10455 10457 10460 10462 10464 10466 10468 10470 10473 10476 10479 10480 10482 10483 10485 10487 10489 10491 10494 10497 10501 10504 10506 10509 10512 10515 10519 10523 10527 10531 10534 10536 10538 10541 10544 10546 10549 10551 10555 10559 10563 10566 10569 10573 10577 10580 10579 10577 10579 10582 10583 10584 10586 10586 10586 10588 10589 10590 10592 10594 10596 10597 10598 10599 10599 10599 10599 10599 10599 10598 10597 10598 10600 10600 10602 10604 10606
10428 10430 10431 10433 10437 10441 10443 10446 10448 10450 10452 10455 10457 10459 10462 10464 10466 10468 10472 10475 10476 10477 10479 10481 10482 10485 10488 10491 10494 10497 10499 10502 10504 10508 10511 10515 10519 10523 10526 10528 10531 10535 10538 10540 10543 10546 10549 10551 10555 10559 10561 10564 10568 10573 10576 10577 10575 10577 10580 10581 10581 10582 10582 10582 10583 10585 10587 10589 10591 10593 10595 10596 10596 10596 10596 10596 10595 10594 10593 10592 10593 10594 10595 10597 10599 10601
10424 10426 10427 10429 10432 10435 10439 10441 10443 10445 10448 10451 10453 10456 10458 10460 10462 10464 10468 10471 10472 10473 10475 10477 10478 10481 10485 10488 10490 10492 10495 10498 10501 10504 10507 10511 10515 10519 10522 10525 10527 10530 10533 10537 10540 10543 10545 10548 10550 10553 10556 10559 10564 10568 10572 10573 10572 10573 10576 10578 10578 10577 10577 10577 10579 10581 10583 10586 10588 10591 10594 10595 10595 10594 10592 10590 10589 10589 10589 10587 10588 10590 10591 10591 10593 10595
10419 10421 10423 10424 10426 10429 10433 10437 10439 10441 10444 10447 10449 10452 10454 10456 10458 10460 10463 10466 10468 10470 10472 10473 10475 10478 10481 10484 10486 10488 10491 10494 10498 10501 10504 10508 10511 10515 10518 10521 10523 10525 10529 10533 10536 10538 10541 10543 10545 10548 10551 10554 10558 10562 10565 10566 10567 10568 10571 10573 10572 10569 10569 10572 10574 10575 10578 10582 10586 10590 10592 10592 10593 10591 10588 10585 10585 10585 10585 10583 10583 10585 10585 10586 10587 10588
10414 10417 10418 10419 10421 10424 10428 10432 10434 10437 10439 10442 10445 10447 10449 10452 10454 10456 10459 10462 10464 10466 10467 10469 10471 10474 10476 10479 10482 10485 10488 10491 10494 10497 10501 10504 10507 10510 10514 10516 10519 10522 10525 10528 10531 10534 10536 10538 10541 10543 10546 10550 10553 10555 10557 10559 10561 10562 10564 10565 10564 10563 10564 10567 10569 10570 10574 10579 10583 10585 10586 10586 10587 10586 10583 10581 10582 10582 10581 10580 10579 10579 10579 10580 10581 10582
10409 10412 10413 10414 10416 10419 10423 10426 10430 10432 10435 10438 10440 10443 10445 10448 10451 10453 10455 10457 10460 10462 10463 10465 10468 10470 10472 10475 10478 10481 10484 10487 10490 10493 10496 10500 10503 10506 10510 10513 10516 10519 10522 10525 10527 10529 10531 10534 10536 10538 10542 10545 10547 10549 10551 10553 10555 10557 10558 10559 10559 10559 10560 10563 10565 10567 10570 10575 10577 10579 10580 10580 10580 10579 10577 10577 10577 10577 10577 10576 10575 10574 10574 10575 10576 10576
10403 10407 10409 10410 10412 10415 10418 10422 10425 10427 10430 10433 10435 10438 10441 10444 10447 10449 10451 10454 10456 10458 10459 10461 10464 10466 10468 10471 10474 10477 10480 10484 10487 10489 10492 10496 10499 10502 10506 10509 10512 10515 10519 10521 10523 10525 10527 10529 10531 10533 10536 10539 10541 10543 10545 10547 10550 10552 10553 10553 10554 10555 10556 10558 10560 10563 10566 10569 10572 10574 10575 10575 10574 10574 10572 10572 10573 10573 10572 10571 10571 10571 10571 10572 10572 10571
10399 10402 10404 10406 10408 10411 10414 10417 10420 10423 10425 10428 10431 10433 10436 10439 10442 10445 10447 10449 10452 10453 10455 10457 10460 10462 10464 10467 10470 10473 10477 10480 10483 10486 10489 10492 10495 10498 10502 10505 10508 10511 10514 10516 10518 10520 10522 10524 10526 10528 10531 10533 10535 10538 10540 10542 10544 10546 10548 10548 10549 10551 10552 10553 10556 10559 10562 10564 10566 10569 10570 10569 10568 10568 10568 10568 10569 10569 10567 10566 10567 10567 10567 10568 10568 10568
10395 10398 10400 10402 10404 10407 10409 10412 10415 10417 10420 10423 10426 10428 10431 10434 10437 10440 10442 10445 10447 10449 10451 10453 10455 10458 10460 10463 10466 10469 10472 10476 10479 10482 10485 10488 10491 10494 10497 10501 10504 10507 10509 10511 10513 10515 10518 10520 10522 10523 10525 10527 10529 10531 10533 10536 10538 10540 10542 10543 10544 10546 10547 10549 10552 10554 10557 10559 10561 10563 10564 10563 10562 10562 10563 10564 10565 10565 10563 10562 10562 10562 10563 10563 10563 10563
10389 10392 10396 10398 10400 10402 10404 10408 10410 10412 10414 10418 10421 10423 10426 10430 10432 10435 10437 10440 10442 10445 10447 10449 10452 10454 10457 10459 10462 10464 10468 10471 10474 10478 10481 10484 10487 10490 10493 10496 10499 10502 10504 10506 10509 10511 10513 10515 10517 10518 10519 10521 10523 10524 10527 10530 10532 10534 10536 10538 10539 10541 10542 10544 10546 10549 10551 10552 10554 10556 10557 10557 10557 10558 10558 10559 10560 10559 10558 10558 10557 10558 10558 10558 10558 10558
10383 10387 10390 10393 10395 10397 10400 10403 10405 10407 10410 10413 10416 10418 10421 10424 10427 10430 10433 10435 10438 10440 10442 10445 10448 10451 10453 10455 10458 10460 10463 10466 10470 10473 10477 10480 10483 10485 10488 10492 10494 10497 10499 10501 10504 10506 10507 10509 10511 10512 10513 10515 10517 10519 10521 10523 10526 10528 10530 10532 10534 10536 10538 10539 10541 10543 10545 10546 10548 10549 10550 10550 10551 10551 10552 10553 10553 10552 10553 10553 10553 10554 10554 10554 10554 10554
10379 10382 10384 10387 10390 10392 10395 10398 10400 10402 10405 10408 10409 10411 10414 10418 10422 10425 10428 10430 10432 10435 10438 10441 10444 10446 10448 10451 10454 10456 10459 10462 10465 10468 10472 10475 10477 10480 10483 10486 10489 10492 10494 10496 10498 10500 10501 10503 10505 10506 10508 10510 10512 10513 10515 10517 10519 10522 10524 10526 10528 10530 10532 10534 10535 10537 10538 10540 10541 10543 10543 10543 10544 10545 10546 10546 10546 10545 10546 10548 10548 10548 10549 10550 10550 10549
10373 10376 10379 10382 10385 10387 10389 10393 10395 10398 10400 10402 10404 10406 10410 10414 10417 10420 10423 10425 10427 10431 10434 10436 10439 10442 10444 10447 10449 10452 10455 10457 10460 10463 10467 10469 10472 10475 10478 10481 10484 10487 10489 10491 10493 10495 10497 10499 10500 10501 10503 10504 10506 10508 10509 10511 10513 10515 10518 10520 10522 10524 10526 10528 10529 10531 10532 10534 10535 10536 10537 10537 10538 10538 10539 10539 10539 10538 10539 10541 10541 10541 10542 10543 10542 10542
10367 10369 10372 10375 10379 10381 10384 10387 10390 10393 10395 10397 10399 10403 10406 10410 10412 10416 10419 10421 10424 10427 10429 10432 10435 10437 10440 10442 10445 10447 10450 10452 10455 10458 10461 10464 10467 10469 10472 10475 10478 10481 10483 10485 10487 10489 10492 10494 10495 10497 10498 10500 10501 10502 10503 10505 10506 10508 10511 10513 10515 10518 10519 10521 10523 10524 10526 10527 10528 10529 10530 10530 10531 10532 10532 10532 10532 10531 10532 10533 10533 10533 10533 10533 10533 10532
10358 10360 10363 10368 10372 10375 10379 10382 10385 10387 10390 10393 10396 10399 10402 10405 10408 10411 10414 10416 10419 10422 10425 10428 10430 10432 10434 10437 10439 10442 10444 10447 10450 10453 10456 10458 10460 10463 10466 10469 10472 10475 10478 10479 10481 10484 10486 10488 10490 10492 10494 10495 10496 10496 10497 10498 10499 10501 10503 10505 10508 10510 10512 10513 10515 10516 10518 10519 10521 10522 10523 10524 10525 10525 10525 10525 10525 10524 10524 10524 10525 10525 10525 10525 10524 10523
10349 10350 10355 10360 10364 10368 10373 10376 10379 10382 10384 10388 10392 10395 10398 10400 10403 10407 10409 10411 10414 10417 10420 10423 10425 10427 10430 10432 10434 10436 10439 10442 10444 10447 10450 10453 10455 10457 10460 10463 10466 10470 10472 10473 10476 10479 10481 10482 10484 10486 10488 10489 10490 10490 10491 10492 10493 10494 10496 10498 10500 10502 10504 10506 10507 10508 10510 10511 10513 10515 10516 10516 10517 10517 10517 10518 10518 10518 10517 10517 10517 10517 10516 10516 10515 10514
10340 10341 10347 10354 10359 10363 10367 10371 10373 10376 10379 10383 10387 10389 10392 10396 10399 10402 10403 10405 10408 10411 10415 10417 10419 10422 10425 10428 10429 10431 10434 10436 10439 10442 10445 10448 10450 10452 10454 10457 10460 10463 10465 10467 10470 10473 10475 10476 10478 10480 10482 10483 10483 10483 10483 10485 10487 10488 10489 10491 10493 10494 10496 10498 10499 10500 10501 10503 10505 10506 10507 10507 10508 10508 10508 10509 10510 10510 10510 10510 10510 10509 10507 10507 10507 10506
10333 10334 10341 10349 10354 10358 10361 10365 10367 10370 10373 10377 10380 10384 10387 10391 10394 10395 10397 10400 10403 10406 10409 10411 10414 10417 10420 10422 10424 10426 10429 10431 10434 10437 10439 10442 10444 10446 10449 10452 10455 10457 10459 10461 10464 10467 10469 10471 10472 10473 10474 10475 10475 10475 10476 10478 10481 10482 10483 10484 10485 10487 10488 10489 10490 10491 10492 10494 10495 10497 10497 10498 10499 10499 10500 10500 10501 10502 10502 10502 10502 10500 10499 10499 10498 10497
10326 10328 10335 10343 10348 10352 10355 10359 10363 10365 10367 10370 10373 10377 10382 10385 10387 10389 10391 10395 10398 10400 10403 10406 10408 10412 10414 10417 10419 10421 10424 10426 10428 10431 10434 10436 10438 10441 10443 10446 10448 10450 10452 10455 10457 10459 10462 10463 10464 10464 10465 10466 10467 10467 10468 10471 10473 10475 10476 10477 10478 10479 10480 10481 10482 10482 10483 10485 10486 10488 10488 10489 10490 10491 10491 10492 10492 10493 10493 10493 10493 10492 10491 10490 10490 10489
10321 10325 10330 10337 10342 10345 10349 10353 10357 10360 10362 10364 10367 10370 10375 10378 10380 10382 10385 10388 10391 10394 10397 10400 10403 10406 10409 10411 10414 10416 10418 10421 10423 10425 10428 10430 10432 10434 10436 10439 10441 10443 10445 10447 10449 10451 10453 10454 10455 10456 10457 10458 10460 10461 10461 10462 10464 10465 10467 10468 10470 10471 10472 10473 10473 10474 10474 10475 10476 10477 10479 10480 10481 10481 10482 10482 10482 10483 10483 10483 10483 10482 10482 10481 10480 10480
10318 10322 10327 10331 10335 10338 10341 10345 10350 10353 10356 10359 10361 10364 10367 10370 10373 10375 10378 10382 10385 10387 10391 10394 10397 10400 10403 10405 10408 10410 10412 10414 10417 10419 10421 10424 10426 10428 10430 10433 10435 10436 10438 10439 10441 10443 10444 10446 10447 10448 10449 10450 10451 10452 10453 10454 10455 10456 10458 10459 10461 10462 10463 10464 10464 10465 10465 10466 10466 10467 10468 10470 10471 10471 10472 10472 10472 10472 10472 10472 10472 10472 10471 10470 10469 10469
10316 10320 10324 10327 10329 10332 10336 10340 10344 10347 10350 10353 10356 10358 10361 10363 10366 10367 10371 10375 10377 10379 10383 10387 10390 10393 10396 10398 10401 10403 10406 10408 10411 10413 10415 10417 10419 10421 10423 10425 10427 10428 10430 10431 10433 10434 10435 10437 10438 10439 10440 10441 10442 10443 10444 10445 10446 10447 10448 10449 10451 10452 10453 10454 10454 10455 10455 10456 10457 10458 10459 10460 10460 10461 10461 10461 10461 10461 10461 10461 10461 10460 10460 10459 10458 10457
10313 10317 10321 10323 10325 10328 10332 10336 10339 10343 10345 10348 10351 10353 10355 10357 10359 10360 10362 10366 10369 10372 10376 10380 10382 10386 10389 10391 10394 10396 10399 10402 10404 10406 10408 10410 10412 10414 10416 10417 10419 10420 10422 10423 10425 10426 10427 10428 10429 10430 10431 10432 10433 10434 10435 10436 10437 10438 10439 10439 10441 10442 10442 10443 10444 10445 10446 10447 10448 10448 10448 10449 10449 10450 10450 10450 10450 10450 10450 10450 10450 10450 10449 10448 10447 10447
10309 10312 10316 10319 10321 10324 10327 10330 10334 10337 10340 10342 10345 10348 10350 10352 10353 10354 10355 10357 10359 10362 10367 10371 10374 10378 10381 10384 10387 10389 10392 10395 10397 10399 10401 10402 10404 10405 10407 10408 10410 10411 10413 10415 10416 10418 10419 10420 10420 10421 10422 10423 10424 10424 10425 10426 10427 10428 10429 10430 10430 10431 10432 10433 10434 10435 10436 10437 10437 10438 10438 10438 10438 10439 10439 10438 10438 10439 10439 10439 10439 10439 10438 10438 10437 10437
10303 10305 10308 10312 10315 10318 10320 10323 10327 10330 10333 10335 10338 10342 10345 10347 10347 10348 10349 10348 10347 10351 10357 10362 10366 10370 10374 10378 10381 10383 10386 10388 10390 10391 10392 10394 10395 10396 10398 10400 10401 10403 10404 10406 10407 10408 10410 10411 10412 10413 10413 10414 10415 10415 10416 10417 10417 10418 10419 10420 10421 10422 10422 10423 10424 10425 10426 10426 10426 10427 10427 10427 10428 10428 10428 10428 10428 10428 10428 10428 10428 10428 10427 10427 10426 10426
10296 10298 10301 10305 10308 10310 10313 10315 10319 10322 10325 10327 10330 10334 10337 10339 10340 10341 10341 10339 10339 10343 10349 10353 10357 10361 10365 10369 10373 10375 10377 10379 10380 10381 10382 10384 10385 10387 10389 10391 10392 10394 10395 10396 10397 10399 10401 10402 10403 10404 10405 10406 10406 10407 10407 10408 10409 10409 10410 10411 10411 10412 10413 10414 10415 10415 10415 10415 10415 10415 10415 10416 10416 10417 10418 10418 10418 10417 10417 10417 10417 10417 10416 10416 10415 10414
10291 10292 10295 10298 10300 10302 10305 10308 10311 10314 10316 10319 10322 10325 10328 10330 10331 10332 10333 10332 10332 10334 10338 10343 10346 10350 10353 10357 10360 10364 10366 10368 10370 10372 10374 10375 10376 10377 10379 10381 10382 10383 10385 10387 10389 10391 10393 10394 10395 10396 10397 10397 10398 10398 10399 10399 10400 10400 10401 10401 10402 10403 10403 10404 10405 10404 10404 10404 10404 10404 10404 10404 10405 10405 10406 10406 10406 10406 10406 10405 10405 10405 10404 10404 10403 10402